Regional Weather Roundup
Issued by NWS

Home | Current Version | Previous Version | Text Only | Print | Product List | Glossary On
Versions: 1 2 3 4 5 6 7 8 9 10 11 12 13 14 15 16 17 18 19 20 21 22 23 24 25 26 27
000
ASUS44 KLIX 251913
RWRLA
LOUISIANA WEATHER ROUNDUP
NATIONAL WEATHER SERVICE NEW ORLEANS LA
200 PM CDT MON SEP 25 2017

NOTE: "FAIR" INDICATES FEW OR NO CLOUDS BELOW 12,000 FEET WITH NO
      SIGNIFICANT WEATHER AND/OR OBSTRUCTIONS TO VISIBILITY.
      SKY/WX - SKY CONDITION AND SIGNIFICANT WEATHER.
      TMP - AIR TEMPERATURE.    DP   - DEWPOINT TEMPERATURE.
      RH  - RELATIVE HUMIDITY.  PRES - PRESSURE.
      HX  - HEAT INDEX.         WCI  - WIND CHILL INDEX.

*  THESE STATIONS ARE NOT NWS OR FAA STATIONS AND ARE NOT UNDER
   NWS QUALITY CONTROL.

LAZ040-048-061>063-065-066-069-252000-
SOUTHEAST LOUISIANA

CITY           SKY/WX    TMP DP  RH WIND       PRES   REMARKS
N.O. INTL ARPT PTSUNNY   85  71  63 E10       29.88F
N.O. LAKEFRONT MOSUNNY   86  72  62 NE12      29.89F
N.O. DOWNTOWN* MOCLDY    86  71  60 VRB5      29.89F
RESERVE*       FAIR      87  69  54 E9        29.88F
SLIDELL        PTSUNNY   86  68  54 E6        29.88F
BATON ROUGE    PTSUNNY   86  66  51 E10       29.89F
BOOTHVILLE     MOSUNNY   86  76  71 NE9       29.87  HX  96
BELLE CHASSE   NOT AVBL
BOGALUSA*      CLOUDY    86  66  52 NE8       29.91F
GALLIANO*      CLEAR     85  70  60 NE7       29.87F
NEW ROADS*     MOCLDY    86  69  56 NE8       29.89F
GONZALES*      FAIR      87  67  52 CALM      29.87F
HAMMOND*       MOSUNNY   88  64  45 E10       29.89F
HOUMA*         MOSUNNY   88  72  58 NE9       29.87F
PORT FOURCHON* MOCLDY    84  72  65 NE8       29.88S

$$

LAZ041-044-053-054-252000-
SOUTHWEST LOUISIANA

CITY           SKY/WX    TMP DP  RH WIND       PRES   REMARKS
LAKE CHARLES   MOSUNNY   87  67  51 CALM      29.87F
LAFAYETTE      MOSUNNY   89  70  53 VRB5      29.88F
PATTERSON      NOT AVBL
SALT POINT       N/A     87  69  54 VRB3      29.85F
NEW IBERIA     MOSUNNY   88  67  49 MISG      29.88F
CHENAULT AIRPK PTSUNNY   75  68  78 E7        29.88F

$$

LAZ027-028-252000-
CENTRAL LOUISIANA

CITY           SKY/WX    TMP DP  RH WIND       PRES   REMARKS
FORT POLK      PTSUNNY   86  67  53 NE6       29.88F
ALEXANDRIA INT MOSUNNY   89  66  46 NE7       29.88F
ALEXANDRIA     MOSUNNY   86  68  54 E8        29.90F

$$

LAZ001-002-252000-
NORTHWEST LOUISIANA

CITY           SKY/WX    TMP DP  RH WIND       PRES   REMARKS
SHREVEPORT     MOSUNNY   88  69  53 S10       29.90F
BARKSDALE AFB  MOSUNNY   88  68  50 E10       29.90F
DTN SHREVEPORT MOSUNNY   89  69  51 SE9       29.90F

$$

LAZ014-016-252000-
NORTHEAST LOUISIANA

CITY           SKY/WX    TMP DP  RH WIND       PRES   REMARKS
MONROE         SUNNY     87  66  49 VRB5      29.92F
TALLULAH       SUNNY     87  66  49 MISG      29.91F

$$





USA.gov is the U.S. government's official web portal to all federal, state and local government web resources and services.